Location: Newark
(50.4348°N, 30.5552°E)
Time: 03:47:55
(UTC+00:00)

Transit 2A Rocket - Visible Passes

Search period start: 27 January 2020 00:00
Search period end: 06 February 2020 00:00
Orbit: 593 x 910 km, 66.7° (Epoch: 26 January)

Date Brightness Start Highest point End Pass type
(mag) Time Alt. Az. Time Alt. Az. Time Alt. Az.
27 Jan 5.1 02:51:37 51° SE 02:51:48 51° ESE 02:56:02 10° NE visible
27 Jan 5.5 04:31:34 14° W 04:34:34 28° NW 04:38:27 10° NNE visible
28 Jan 6.6 02:10:46 24° E 02:10:46 24° E 02:13:13 10° NE visible
28 Jan 4.9 03:50:42 35° W 03:51:48 42° NW 03:56:02 10° NNE visible
29 Jan 7.7 01:29:46 11° ENE 01:29:46 11° ENE 01:30:02 10° ENE visible
29 Jan 4.7 03:09:42 60° N 03:09:42 60° N 03:13:34 10° NNE visible
29 Jan 6.2 04:49:37 10° WNW 04:52:34 17° NNW 04:55:36 10° NNE visible
30 Jan 6.1 02:28:35 32° NE 02:28:35 32° NE 02:31:01 10° NE visible
30 Jan 5.8 04:08:29 21° WNW 04:09:39 23° NNW 04:13:14 10° NNE visible
31 Jan 7.3 01:47:23 16° NE 01:47:23 16° NE 01:48:19 10° NE visible
31 Jan 5.5 03:27:17 31° NNW 03:27:17 31° NNW 03:30:52 10° NNE visible
01 Feb 6.0 02:46:01 29° NNE 02:46:01 29° NNE 02:48:26 10° NNE visible
01 Feb 6.4 04:25:55 12° NW 04:27:45 15° NNW 04:30:24 10° NNE visible
02 Feb 6.9 02:04:41 18° NE 02:04:41 18° NE 02:05:56 10° NE visible
02 Feb 6.1 03:44:36 19° NNW 03:44:46 19° NNW 03:48:02 10° NNE visible
03 Feb 7.7 01:23:20 10° NE 01:23:20 10° NE 01:23:20 10° NE visible
03 Feb 6.2 03:03:14 22° N 03:03:14 22° N 03:05:40 10° NNE visible
03 Feb 6.8 04:44:32 10° NNW 04:46:04 11° N 04:47:37 10° N visible
04 Feb 6.8 02:21:50 19° NNE 02:21:50 19° NNE 02:23:16 10° NNE visible
04 Feb 6.6 04:01:44 12° NW 04:02:58 13° NNW 04:05:12 10° NNE visible
05 Feb 7.4 01:40:24 12° NNE 01:40:24 12° NNE 01:40:49 10° NNE visible
05 Feb 6.5 03:20:18 16° NNW 03:20:18 16° NNW 03:22:51 10° NNE visible
